Location: Litvinovka
(48.6667°N, 34.3500°E)
Time: 19:14:03
(UTC+00:00)

Cosmos 1782 Rocket - Pass Details

Date: 18 September 2020
Orbit: 607 x 632 km, 82.5° (Epoch: 21 October)

Event Time Altitude Azimuth Distance (km) Brightness Sun altitude
Rises 17:05:33 0° 200° (SSW) 2,883 7.0 -13.3°
Reaches altitude 10° 17:07:48 10° 205° (SSW) 1,986 6.2 -13.7°
Maximum altitude 17:12:07 54° 283° (WNW) 760 4.4 -14.4°
Drops below altitude 10° 17:16:31 10° 2° (N) 2,017 6.4 -15.0°
Sets 17:18:49 0° 7° (N) 2,932 7.2 -15.4°
